TimeEST,TemperatureF,Dew PointF,Humidity,Sea Level PressureIn,VisibilityMPH,Wind Direction,Wind SpeedMPH,Gust SpeedMPH,PrecipitationIn,Events,Conditions,WindDirDegrees,DateUTC
12:56 AM,23.0,19.9,88,30.39,6.0,Calm,Calm,-,N/A,,Clear,0,2013-01-08 05:56:00
1:37 AM,37.4,33.8,87,30.38,10.0,SSW,12.7,-,N/A,,Clear,200,2013-01-08 06:37:00
1:56 AM,39.0,32.0,76,30.38,10.0,SSW,16.1,-,N/A,,Clear,200,2013-01-08 06:56:00
2:56 AM,39.9,34.0,79,30.36,10.0,SSW,16.1,-,N/A,,Clear,210,2013-01-08 07:56:00
3:56 AM,39.9,34.0,79,30.35,9.0,SW,13.8,-,N/A,,Clear,220,2013-01-08 08:56:00
4:56 AM,39.9,35.1,83,30.35,8.0,SW,13.8,-,N/A,,Clear,220,2013-01-08 09:56:00
5:56 AM,39.9,34.0,79,30.37,7.0,SW,15.0,-,N/A,,Clear,230,2013-01-08 10:56:00
6:56 AM,39.0,34.0,82,30.39,6.0,WSW,9.2,-,N/A,,Haze,240,2013-01-08 11:56:00
7:56 AM,39.9,34.0,79,30.41,5.0,WSW,13.8,20.7,N/A,,Haze,240,2013-01-08 12:56:00
8:56 AM,42.1,35.1,76,30.42,5.0,WSW,12.7,20.7,N/A,,Haze,240,2013-01-08 13:56:00
9:56 AM,43.0,35.1,74,30.42,5.0,WSW,16.1,24.2,N/A,,Haze,240,2013-01-08 14:56:00
10:56 AM,44.1,35.1,71,30.40,6.0,WSW,15.0,24.2,N/A,,Haze,240,2013-01-08 15:56:00
11:56 AM,45.0,34.0,65,30.36,6.0,WSW,16.1,21.9,N/A,,Haze,250,2013-01-08 16:56:00
12:56 PM,46.0,34.0,63,30.33,7.0,WSW,10.4,-,N/A,,Clear,240,2013-01-08 17:56:00
1:56 PM,46.9,32.0,56,30.34,8.0,WSW,9.2,-,N/A,,Clear,250,2013-01-08 18:56:00
2:56 PM,45.0,36.0,71,30.33,7.0,SW,8.1,-,N/A,,Clear,220,2013-01-08 19:56:00
3:56 PM,43.0,36.0,76,30.33,6.0,SW,8.1,-,N/A,,Haze,220,2013-01-08 20:56:00
4:56 PM,42.1,37.0,82,30.33,6.0,WSW,9.2,-,N/A,,Haze,250,2013-01-08 21:56:00
5:56 PM,42.1,37.9,85,30.35,6.0,WSW,6.9,-,N/A,,Clear,250,2013-01-08 22:56:00
6:56 PM,39.0,37.9,96,30.36,6.0,WSW,6.9,-,N/A,,Clear,240,2013-01-08 23:56:00
7:56 PM,39.9,37.9,93,30.37,7.0,SW,9.2,-,N/A,,Clear,230,2013-01-09 00:56:00
8:56 PM,35.1,35.1,100,30.38,6.0,Calm,Calm,-,N/A,,Clear,0,2013-01-09 01:56:00
9:56 PM,33.1,33.1,100,30.38,4.0,Calm,Calm,-,N/A,,Clear,0,2013-01-09 02:56:00
10:56 PM,30.0,30.0,100,30.38,3.0,Calm,Calm,-,N/A,,Clear,0,2013-01-09 03:56:00
11:06 PM,30.2,30.2,100,30.38,2.0,Calm,Calm,-,N/A,,Clear,0,2013-01-09 04:06:00
11:39 PM,28.4,28.4,100,30.37,3.0,NE,3.5,-,N/A,,Clear,50,2013-01-09 04:39:00
11:56 PM,28.9,28.9,100,30.37,3.0,Calm,Calm,-,N/A,,Clear,0,2013-01-09 04:56:00